Flag for Cayman Islands Weather past 2 weeks in George Town, Cayman Islands

Now
90 °F

Passing clouds.


Feels Like: 105 °F
Forecast: N/A
Wind: 10 mph from Southeast

Location: Owen Roberts Airportgrand Cayman

Current Time: Jul 31, 2015 at 5:37:03 PM

Latest Report: Jul 31, 2015 at 4:00 PM


Visibility: N/A

Pressure: 29.95 "Hg

Humidity: 71%

Dew point: 79 °F

Location of George TownLocation

Historic Weather in George Town — Graph

°F

George Town temperature yesterday

Maximum temperature yesterday: 90 °F (at 10:00 AM)
Minimum temperature yesterday: 82 °F (at 6:00 AM)
Average temperature yesterday: 87 °F

Past Weeks' High & Low Weather Summary

 TemperatureHumidityPressure
High91 °F (Jul 17, 11:51 AM)100% (Jul 29, 6:56 AM)30.07 "Hg (Jul 29, 6:56 AM)
Low79 °F (Jul 20, 6:00 AM)56% (Jul 17, 11:51 AM)29.92 "Hg (Jul 26, 5:51 AM)
Average86 °F75%30.00 "Hg
* Reported Jul 16 4:00 PM — Jul 31 4:00 PM, George Town, Weather by CustomWeather, © 2015

Note: Actual official high and low records may vary slightly from our data, if they occured in-between our weather recording intervals... More about our weather records

Advertising

George Town weather history for previous 24 hours

 ConditionsComfort  
Time TempWeatherWind HumidityBarometerVisibility
4:00 PM
Fri, Jul 31
90 °FPassing clouds.10 mph71%29.95 "HgN/A
3:00 PM90 °FScattered clouds.12 mph71%29.95 "HgN/A
2:00 PM90 °FScattered clouds.10 mph71%29.98 "HgN/A
1:00 PM91 °FScattered clouds.12 mph67%29.98 "HgN/A
12:00 PM88 °FScattered clouds.10 mph79%29.98 "HgN/A
11:00 AM90 °FScattered clouds.7 mph67%30.01 "HgN/A
10:00 AM90 °FPassing clouds.9 mph67%30.01 "HgN/A
9:00 AM88 °FPassing clouds.7 mph70%30.01 "HgN/A
8:00 AM86 °FScattered clouds.6 mph66%30.01 "HgN/A
7:00 AM84 °FThunderstorms. Scattered clouds.8 mph70%30.01 "HgN/A
6:00 AM84 °FPassing clouds.7 mph84%29.98 "HgN/A
9:50 PM
Thu, Jul 30
86 °FPassing clouds.7 mph79%30.01 "HgN/A
8:55 PM86 °FPassing clouds.6 mph84%30.01 "HgN/A
7:55 PM86 °FPassing clouds.7 mph84%30.01 "HgN/A
6:50 PM86 °FPassing clouds.7 mph79%29.98 "HgN/A
5:52 PM88 °FPassing clouds.9 mph75%29.98 "HgN/A
Weather by CustomWeather, © 2015

See weather overviewHow to use our weather pages